{"data":{"norad_id":43575,"epoch":"2026-05-25T04:32:06.499104Z","epoch_age_seconds":55149,"freshness":"FRESH","line1":"1 43575U 18061G   26145.18896411  .00000050  00000+0  10826-4 0  9991","line2":"2 43575  86.3966  66.3365 0002372  85.5496 274.5970 14.34217974410083","mean_motion":14.34217974,"eccentricity":0.0002372,"inclination_deg":86.3966,"raan_deg":66.3365,"arg_perigee_deg":85.5496,"mean_anomaly_deg":274.597,"bstar":1.0826e-5,"rev_number":41008,"period_min":100.4031483432,"perigee_km":775.96905270969,"apogee_km":779.36376584706,"semimajor_km":7155.8034092784,"source":"CELESTRAK","updated_at":"2026-05-25T13:38:14.812702Z"}}